Location: *
(51.1248°S, 108.4023°W)
Time: 01:52:57
(UTC+00:00)

N. Korean satellite - Pass Details

Date: 28 September 2021
Orbit: 450 x 494 km, 97.3° (Epoch: 27 October)

Event Time Altitude Azimuth Distance (km) Brightness Sun altitude
Rises 10:22:50 0° 54° (NE) 2,599 10.5 -22.1°
Reaches altitude 10° 10:25:22 10° 72° (ENE) 1,720 9.8 -21.8°
Maximum altitude 10:27:59 19° 117° (ESE) 1,267 9.6 -21.4°
Drops below altitude 10° 10:30:38 10° 163° (SSE) 1,725 10.0 -21.1°
Sets 10:33:10 0° 180° (S) 2,609 10.7 -20.7°
